Location: Herran
(42.9715°N, 0.9155°E)
Time: 03:08:33
(UTC+00:00)

Daily predictions for brighter satellites

Satellite Brightness Start Highest point End
(mag) Time Altitude Azimuth Time Altitude Azimuth Time Altitude Azimuth
Cosmos 1758 4.0 00:00:35 10° N 00:03:41 53° N 00:03:41 53° N
SL-08 ROCKET BODY 4.3 00:00:18 10° NNW 00:06:06 64° W 00:06:46 59° SW
Cosmos 2221 Rocket 3.7 00:06:47 70° NNE 00:06:47 70° NNE 00:10:43 10° N
Cosmos 1674 Rocket 4.1 00:06:55 52° ENE 00:06:55 52° ENE 00:10:36 10° NNE
Cosmos 1244 Rocket 4.4 00:00:13 10° N 00:06:32 76° W 00:07:36 62° SSW
Cosmos 1461 3.3 00:02:53 10° NNW 00:06:31 60° N 00:06:31 60° N
Cosmos 2298 Rocket 4.5 00:07:41 47° ESE 00:07:42 47° ESE 00:12:46 10° NNE
Nadezhda 2 Rocket 4.4 00:02:11 10° NNW 00:08:18 71° W 00:09:13 61° SW
Cosmos 1674 3.7 00:10:51 44° N 00:10:51 44° N 00:13:32 10° N
USA 306 4.5 00:11:52 26° ENE 00:11:52 26° ENE 00:13:54 10° ENE
ATLAS CENTAUR R/B 2.6 00:10:33 10° NW 00:13:59 38° WNW 00:13:59 38° WNW
SL-16 R/B 4.3 00:16:08 13° ESE 00:17:03 13° E 00:19:37 10° ENE
Cosmos 1980 4.1 00:20:38 48° ESE 00:20:58 48° ESE 00:26:23 10° NE
Cosmos 2333 Rocket 3.3 00:19:42 29° W 00:21:40 37° WNW 00:26:56 10° N
Cosmos 1378 Rocket 3.7 00:22:19 72° NNE 00:22:19 72° NNE 00:26:21 10° N
Cosmos 2322 4.3 00:20:47 41° WSW 00:22:14 50° WNW 00:27:50 10° NNE
ATLAS 5 CENTAUR R/B 3.0 00:11:16 10° NW 00:23:22 74° NE 00:24:40 48° ESE
Cosmos 468 4.5 00:18:37 10° NNW 00:23:52 73° ENE 00:24:27 65° ESE
CZ-4C R/B 3.0 00:16:39 10° NW 00:24:06 86° SW 00:27:53 38° SSE
Cosmos 1844 Rocket 4.4 00:23:13 10° WNW 00:26:32 19° W 00:26:32 19° W
USA 215 4.3 00:21:59 10° NE 00:28:03 42° NNW 00:34:08 10° W
NOSS 0 Rocket 3.9 00:29:23 61° S 00:30:27 75° ESE 00:36:42 10° NNE
PSLV R/B 4.1 00:30:48 10° N 00:35:00 49° WNW 00:35:00 49° WNW
USA 32 4.3 00:35:15 50° ESE 00:35:57 55° E 00:41:06 10° NNE
Meteor 2-10 Rocket 4.4 00:34:00 10° N 00:39:26 45° ENE 00:41:17 34° ESE
Cosmos 1975 Rocket 4.4 00:39:39 30° E 00:39:55 30° E 00:43:50 10° NNE
Cosmos 2151 Rocket 4.3 00:37:14 10° NNW 00:40:53 44° WNW 00:40:53 44° WNW
ADEOS Rocket 3.7 00:42:18 32° W 00:42:34 32° W 00:47:47 10° NNW
Cosmos 1745 Rocket 3.9 00:37:04 10° N 00:43:19 79° W 00:44:35 58° SSW
USA 308 3.4 00:44:46 53° ENE 00:44:46 53° ENE 00:48:04 10° NE
Cosmos 839 Rocket 4.4 00:38:01 10° NNW 00:44:25 74° NE 00:49:11 24° SE
Cosmos 2219 Rocket 3.5 00:42:56 25° W 00:45:00 32° NW 00:49:59 10° N
Okean 2 Rocket 4.1 00:41:34 10° NNW 00:45:13 36° WNW 00:45:13 36° WNW
Cosmos 1025 Rocket 4.4 00:47:03 28° E 00:47:24 29° E 00:51:06 10° NNE
Meteor 2-12 Rocket 4.3 00:44:48 10° N 00:50:55 86° E 00:52:26 54° SSE
Meteor 1-16 Rocket 4.3 00:45:14 10° NNW 00:51:07 67° W 00:52:02 58° SW
GP-B 3.2 00:53:29 10° N 00:57:55 67° E 00:58:07 66° ESE
Lacrosse 5 2.7 00:58:31 37° ESE 00:58:31 37° ESE 01:03:01 10° ENE
CZ-2D R/B 3.1 00:56:05 10° NNE 01:01:01 36° E 01:02:28 31° SE
SL-14 R/B 3.8 01:02:27 50° NW 01:02:27 50° NW 01:05:43 10° N
Cosmos 1300 3.0 00:58:14 10° N 01:01:27 62° N 01:01:27 62° N
USA 267 3.4 01:02:14 46° SW 01:02:48 47° SW 01:09:05 10° WNW
Cosmos 883 Rocket 4.4 01:04:14 51° SSW 01:05:56 79° W 01:12:18 10° N
Cosmos 371 Rocket 3.5 01:06:03 53° W 01:06:36 56° WNW 01:11:24 10° NNE
Cosmos 2150 Rocket 4.3 01:06:08 49° WSW 01:07:00 56° WNW 01:12:05 10° NNE
USA 305 3.1 01:07:08 59° NW 01:07:22 60° NW 01:11:31 10° NE
NOSS 2-2 (C) 4.3 01:04:26 10° NW 01:09:47 73° SW 01:12:46 36° SSE
USA 229 DEB 3.9 01:04:02 10° NW 01:11:25 69° WSW 01:15:06 34° SSE
USA 229 3.9 01:04:07 10° NW 01:11:31 69° WSW 01:15:14 34° SSE
Cosmos 2237 Rocket 2.3 01:11:28 51° SW 01:12:50 70° WNW 01:18:32 10° NNE
COSMOS 2428 4.2 01:12:16 20° W 01:14:45 28° NW 01:19:36 10° N
Cosmos 405 Rocket 4.5 01:18:03 21° WNW 01:18:03 21° WNW 01:20:37 10° NNW
Cosmos 304 Rocket 3.7 01:17:17 62° WSW 01:17:54 71° WNW 01:22:43 10° NNE
SL-16 R/B 3.2 01:14:42 17° SE 01:19:18 51° ENE 01:25:19 10° N
Cosmos 1437 Rocket 4.3 01:17:09 10° NNW 01:19:16 24° WNW 01:19:16 24° WNW
Cosmos 1125 Rocket 4.3 01:20:00 35° W 01:21:13 40° WNW 01:26:08 10° N
Lacrosse 5 rocket 2.6 01:21:54 28° ESE 01:21:54 28° ESE 01:24:45 10° ENE
Okean 1 Rocket 4.1 01:20:29 10° NNW 01:24:04 32° W 01:24:04 32° W
SME Rocket 2.9 01:24:34 71° S 01:25:00 88° WSW 01:29:51 10° NNW
Cosmos 1953 3.8 01:23:47 10° NNW 01:26:26 25° WNW 01:26:26 25° WNW
Resurs 1-4 Rocket 2.2 01:25:03 10° NNE 01:30:19 69° ESE 01:31:56 44° S
Cosmos 1943 Rocket 2.7 01:28:28 10° NNW 01:34:05 57° ENE 01:39:28 11° SE
MOZ.5/SAFIR/RUBIN 5/SL-8 3.9 01:33:59 53° WSW 01:34:25 55° W 01:39:06 10° NNW
Cosmos 2315 Rocket 4.3 01:35:34 38° SW 01:37:41 54° WNW 01:43:56 10° N
Cosmos 1709 Rocket 4.3 01:31:51 10° NNW 01:37:41 48° W 01:39:17 39° SW
Cosmos 2184 Rocket 4.2 01:38:25 10° N 01:44:41 70° E 01:48:45 22° SSE
Cosmos 2278 Rocket 2.9 01:40:04 10° NW 01:45:05 33° WSW 01:45:23 33° WSW
ADEOS II 2.7 01:41:07 10° NNE 01:46:13 50° E 01:48:40 28° SSE
IDEFIX/ARIANE 42P 3.5 01:42:06 10° NNE 01:47:06 42° E 01:49:52 23° SSE
USA 306 4.2 01:47:34 22° WNW 01:49:33 35° NNW 01:53:25 10° NE
Cosmos 2084 Rocket 3.3 01:49:15 54° W 01:49:42 60° NW 01:53:28 10° NNE
USA 307 4.1 01:51:04 23° WNW 01:53:00 37° NNW 01:56:55 10° NE
Thor Agena Rocket 4.4 01:49:28 10° N 01:54:23 40° WNW 01:56:09 30° WSW
ERBS 3.8 01:54:54 24° NW 01:55:21 25° NNW 01:57:58 10° NNE
NPP 3.6 01:52:55 10° NNE 01:58:20 84° WNW 02:00:36 37° SSW
Cosmos 2369 Rocket 3.7 01:54:04 10° N 01:59:13 36° ENE 02:04:20 10° ESE
SL-16 R/B 2.1 01:58:00 38° SSW 02:00:19 85° WNW 02:06:02 10° NNE
Cosmos 1455 Rocket 3.7 01:58:40 10° NNW 02:02:47 37° W 02:03:14 36° WSW
CZ-4 R/B 4.0 01:58:41 10° N 02:03:15 58° WNW 02:04:41 39° SW
EO 1 Del DPAF 3.7 02:00:55 10° NNE 02:04:19 48° E 02:05:16 37° SSE
Meteor 1-28 Rocket 3.6 02:03:37 27° SE 02:05:25 60° ENE 02:09:07 10° N
COSMOS 2455 3.1 02:04:48 30° S 02:07:48 64° ESE 02:13:46 10° NE
Cosmos 1536 Rocket 3.6 02:08:03 36° S 02:09:48 80° E 02:14:13 10° N
CZ-4C R/B 4.2 02:06:35 10° WNW 02:12:10 21° WSW 02:12:59 21° WSW
Cosmos 1975 Rocket 4.5 02:16:47 22° W 02:17:47 24° WNW 02:21:25 10° NNW
Nadezhda 1 Rocket 4.0 02:15:05 24° S 02:19:10 89° E 02:25:30 10° N
Meteor 1-24 Rocket 4.2 02:17:03 29° SW 02:19:26 45° WNW 02:24:41 10° N
UNK 3.8 02:19:09 33° SSW 02:21:01 56° W 02:25:35 10° NNW
MSX 4.0 02:18:30 10° NNE 02:24:16 70° ESE 02:28:25 20° S
Cosmos 1025 Rocket 4.4 02:23:55 22° W 02:24:58 24° WNW 02:28:30 10° NNW
MOS 1 Rocket 3.1 02:23:22 32° SSW 02:25:07 57° W 02:29:22 10° NNW
YAOGAN 11 4.3 02:23:45 32° SSW 02:25:32 54° W 02:29:57 10° NNW
Cosmos 1455 2.5 02:23:02 10° NNW 02:26:36 45° W 02:27:23 38° SW
Cosmos 1271 Rocket 2.6 02:26:37 10° N 02:30:27 85° W 02:32:45 23° S
Cosmos 1606 Rocket 4.4 02:30:18 10° N 02:34:36 49° ENE 02:38:50 10° SSE
ALOS 4.4 02:34:40 10° NE 02:38:21 23° E 02:42:00 10° SE
CZ-2C R/B 4.4 02:36:21 10° NE 02:40:32 25° E 02:44:36 10° SSE
CZ-2D R/B 3.2 02:36:17 10° N 02:40:56 31° WNW 02:43:47 19° WSW
Lacrosse 5 2.7 02:37:42 18° WSW 02:41:14 45° NW 02:46:09 10° NE
Helios 1B rocket 3.6 02:41:27 10° NNE 02:45:17 39° E 02:49:06 10° SSE
Cosmos 2341 Rocket 4.3 02:41:07 10° N 02:47:31 73° E 02:53:53 10° SSE
BREEZE-M DEB (TANK) 3.1 02:47:13 21° SW 02:50:15 53° SSE 02:52:48 10° ENE
Cosmos 2154 Rocket 4.3 02:44:46 10° NNW 02:50:53 51° W 02:56:00 15° SSW
Meteor 2-1 Rocket 4.4 02:46:14 10° N 02:52:01 76° E 02:57:38 10° SSE
Cosmos 407 Rocket 4.3 02:47:49 10° NNW 02:53:04 56° ENE 02:58:13 10° SE
SL-8 Rocket 4.4 02:47:56 10° N 02:54:15 68° E 03:00:31 10° SSE
Cosmos 1943 3.4 02:50:42 16° SSW 02:55:20 72° ESE 03:01:01 10° NNE
Cosmos 1328 4.0 02:52:13 14° S 02:55:29 71° E 02:59:27 10° NNE
Helios 1A 3.5 02:53:26 21° SSW 02:55:47 39° W 02:59:46 10° NNW
Cosmos 2237 Rocket 4.4 02:55:14 10° WNW 02:57:59 14° NW 03:00:46 10° NNW
Lacrosse 5 rocket 2.3 02:57:25 15° W 03:00:12 37° NW 03:04:02 10° NE
SL-16 R/B 3.5 02:59:47 17° SW 03:03:09 27° W 03:08:20 10° NW
Cosmos 1140 Rocket 3.8 02:58:47 10° NNW 03:04:03 73° ENE 03:09:16 10° SSE
Lacrosse 4 Rocket 3.9 03:04:52 10° SSE 03:07:45 18° ESE 03:10:37 10° ENE
Cosmos 1892 Rocket 3.7 03:04:48 10° S 03:09:14 80° E 03:13:44 10° N
Resurs 1-4 Rocket 3.9 03:06:12 10° NNW 03:09:33 17° WNW 03:12:55 10° W
SeaSat 1 4.2 03:06:17 10° NE 03:10:27 27° ESE 03:14:35 10° SSE
Cosmos 1703 4.4 03:11:07 17° SW 03:13:24 29° WNW 03:16:53 10° NNW
Cosmos 1726 Rocket 3.5 03:09:47 10° N 03:14:13 80° W 03:18:35 10° S
Cosmos 1943 Rocket 3.4 03:13:11 10° NW 03:17:21 21° W 03:20:53 12° SW
Cosmos 2263 4.2 03:12:42 10° NNW 03:18:24 77° WSW 03:24:06 10° SSE
NOSS 3-3 (A) 3.9 03:13:34 14° SW 03:18:24 79° NW 03:24:51 10° NE
FENGYUN 3A 3.9 03:13:05 10° NNE 03:18:28 69° ESE 03:23:50 10° S
NOSS 3-3 (C) 3.9 03:13:40 14° SW 03:18:29 80° NW 03:24:56 10° NE
Cosmos 1023 Rocket 4.5 03:17:03 10° NNW 03:22:21 76° WSW 03:27:34 10° SSE
Cosmos 1825 4.1 03:20:55 10° SSE 03:24:08 28° E 03:27:23 10° NNE
ADEOS II 3.5 03:21:31 10° NNW 03:25:33 23° WNW 03:29:34 10° WSW
SL-24 DEB 4.2 03:20:53 10° S 03:25:38 80° W 03:30:22 10° N
GPS 2-04 Rocket1 4.2 03:24:12 12° SSW 03:26:12 18° SSE 03:28:38 10° ESE
IDEFIX/ARIANE 42P 3.8 03:22:06 10° N 03:26:26 27° WNW 03:30:40 10° WSW
Cosmos 1624 Rocket 4.3 03:22:27 10° S 03:27:45 73° ESE 03:33:03 10° NNE
ARIANE 5 R/B 3.1 03:23:43 10° NNE 03:28:43 57° E 03:33:37 10° S
CBERS-1 4.2 03:26:34 10° N 03:31:36 58° WNW 03:36:36 10° SSW
Cosmos 2218 Rocket 4.0 03:29:51 10° NNW 03:36:03 71° W 03:42:19 10° S
DNEPR-1 R/B 3.7 03:32:36 11° SW 03:36:35 62° NW 03:41:12 10° NNE
MOS 1-B Rocket 3.9 03:31:16 10° S 03:36:48 58° W 03:42:27 10° NNW
Cosmos 2056 Rocket 3.5 03:34:10 10° SSW 03:39:20 89° WNW 03:44:38 10° NNE
Cosmos 1892 2.6 03:36:40 10° S 03:40:27 87° W 03:44:14 10° N
Cosmos 2228 4.5 03:37:24 10° NW 03:40:37 20° W 03:43:47 10° SW
DELTA 2 DEB (DPAF) 4.2 03:37:33 10° SSE 03:41:58 88° ENE 03:46:25 10° NNW
DEBRIS 3.6 03:34:01 10° WNW 03:42:04 66° NNE 03:44:53 10° ESE
Cosmos 2369 Rocket 2.8 03:38:10 10° NW 03:43:10 34° WSW 03:48:09 10° SSW
SL-16 R/B 4.2 03:41:55 10° W 03:45:19 16° NW 03:48:44 10° N
OAO 2 Rocket 4.4 03:41:33 10° SW 03:45:47 29° S 03:49:59 10° ESE
Cosmos 2251 Rocket 4.4 03:42:41 10° NW 03:47:07 28° W 03:51:32 10° SSW
Cosmos 2058 Rocket 3.2 03:44:56 10° NNW 03:49:14 57° W 03:53:29 10° S
Cosmos 2181 Rocket 4.3 03:44:17 10° SSW 03:50:20 51° WNW 03:56:21 10° N
Cosmos 1656 Rocket 4.2 03:47:15 10° NW 03:52:08 35° WSW 03:57:01 10° S
